Location: Waco, TX
(31.5480°N, 97.1670°W)
Time: 13:49:03

ISS - Pass Details

Date: 14 March 2018
Orbit: 403 x 406 km, 51.6° (Epoch: 23 March)

Event Time Altitude Azimuth Distance (km) Brightness Sun altitude
Rises 02:09:41 0° 272° (W) 2,319 - -60.0°
Reaches altitude 10° 02:13:01 10° 308° (NW) 1,462 - -59.8°
Maximum altitude 02:14:08 11° 328° (NNW) 1,385 - -59.7°
Drops below altitude 10° 02:15:15 10° 349° (NNW) 1,464 - -59.7°
Sets 02:18:36 0° 25° (NNE) 2,326 - -59.4°
